Location: D�derode
(51.8092°N, 10.1065°E)
Time: 23:44:46
(UTC+00:00)

Cosmos 1812 - Pass Details

Date: 16 April 2021
Orbit: 516 x 520 km, 82.5° (Epoch: 14 May)

Event Time Altitude Azimuth Distance (km) Brightness Sun altitude
Exits shadow 23:38:58 32° 40° (NE) 925 4.3 -27.6°
Drops below altitude 10° 23:41:16 10° 20° (NNE) 1,766 6.3 -27.5°
Sets 23:43:28 0° 15° (NNE) 2,660 7.6 -27.5°
